Warsaw, IN

12:00 AM EDT on June 25, 2017 (GMT -0400)
Warsaw Municipal

Weather History for KASW - February, 2013

Change the Weather History Date:

Friday, February 1, 2013

  Actual Average Record
Temperature  
Mean Temperature 8 °F -  
Max Temperature 14 °F 35 °F 57 °F (1989)
Min Temperature 3 °F 18 °F -14 °F (1963)
Degree Days  
Heating Degree Days 56    
Moisture  
Dew Point 2 °F    
Average Humidity 71    
Maximum Humidity 79    
Minimum Humidity 62    
Precipitation  
Precipitation 0.00 in - - ()
Sea Level Pressure  
Sea Level Pressure 30.24 in    
Wind  
Wind Speed 14 mph (WSW)    
Max Wind Speed 23 mph    
Max Gust Speed 28 mph    
Visibility 10 miles    
Events Snow    
Averages and records for this station are not official NWS values.
T = Trace of Precipitation, MM = Missing Value Source: NWS Daily Summary

Daily Weather History Graph

Daily Weather History Graph

Search for Another Location

Airport or City:

Trip Planner

Search our weather history database for the weather conditions in past years. The results will help you decide how hot, cold, wet, or windy it might be!

Date:

Astronomy

Feb. 01, 2013 Rise Set
Actual Time 7:54 AM EST 6:00 PM EST
Civil Twilight 7:25 AM EST 6:29 PM EST
Nautical Twilight 6:52 AM EST 7:02 PM EST
Astronomical Twilight 6:19 AM EST 7:34 PM EST
Moon No Moon Rise 10:23 AM EST (2/1)
Length of Visible Light 11h 04m
Length of Day
10h 05m
Waning Gibbous, 70% of the Moon is Illuminated
Feb 1
Waning Gibbous
Feb 3
Last Quarter
Feb 10
New
Feb 17
First Quarter
Feb 25
Full

Hourly Weather History & Observations

Time (EST) Temp. Windchill Dew Point Humidity Pressure Visibility Wind Dir Wind Speed Gust Speed Precip Events Conditions
12:15 AM 10.4 °F -6.6 °F 1.4 °F 67% 30.04 in 10.0 mi West 16.1 mph - N/A   Scattered Clouds
12:35 AM 8.6 °F -8.9 °F 3.2 °F 79% 30.05 in 10.0 mi West 16.1 mph - N/A   Mostly Cloudy
12:55 AM 8.6 °F -9.5 °F 3.2 °F 79% 30.05 in 10.0 mi West 17.3 mph 24.2 mph N/A   Mostly Cloudy
1:15 AM 8.6 °F -8.9 °F 1.4 °F 73% 30.06 in 10.0 mi West 16.1 mph 24.2 mph N/A   Scattered Clouds
1:35 AM 8.6 °F -10.0 °F 1.4 °F 73% 30.07 in 10.0 mi West 18.4 mph - N/A   Clear
1:55 AM 8.6 °F -8.3 °F 1.4 °F 73% 30.08 in 10.0 mi West 15.0 mph 21.9 mph N/A   Clear
2:15 AM 8.6 °F -10.0 °F 1.4 °F 73% 30.09 in 10.0 mi West 18.4 mph 23.0 mph N/A   Clear
2:35 AM 8.6 °F -10.0 °F 1.4 °F 73% 30.10 in 10.0 mi West 18.4 mph 23.0 mph N/A   Clear
2:55 AM 6.8 °F -7.8 °F 1.4 °F 79% 30.11 in 10.0 mi West 10.4 mph 21.9 mph N/A   Clear
3:15 AM 6.8 °F -11.3 °F 1.4 °F 79% 30.12 in 10.0 mi West 16.1 mph - N/A   Clear
3:35 AM 6.8 °F -12.4 °F 1.4 °F 79% 30.13 in 10.0 mi West 18.4 mph 23.0 mph N/A   Clear
3:55 AM 6.8 °F -14.3 °F -0.4 °F 72% 30.14 in 10.0 mi West 23.0 mph 27.6 mph N/A   Clear
4:15 AM 6.8 °F -11.8 °F -0.4 °F 72% 30.15 in 10.0 mi West 17.3 mph 23.0 mph N/A   Clear
4:55 AM 5.0 °F -15.2 °F -0.4 °F 78% 30.17 in 10.0 mi West 19.6 mph 24.2 mph N/A   Clear
5:15 AM 5.0 °F -13.6 °F -0.4 °F 78% 30.18 in 10.0 mi West 16.1 mph 23.0 mph N/A   Clear
5:35 AM 5.0 °F -13.6 °F -0.4 °F 78% 30.19 in 10.0 mi West 16.1 mph 27.6 mph N/A   Clear
5:55 AM 5.0 °F -15.7 °F -0.4 °F 78% 30.19 in 10.0 mi West 20.7 mph 26.5 mph N/A   Clear
6:15 AM 5.0 °F -14.7 °F -0.4 °F 78% 30.20 in 10.0 mi West 18.4 mph 23.0 mph N/A   Clear
6:35 AM 5.0 °F -13.6 °F -0.4 °F 78% 30.22 in 10.0 mi West 16.1 mph 21.9 mph N/A   Clear
6:55 AM 5.0 °F -12.3 °F -0.4 °F 78% 30.23 in 10.0 mi West 13.8 mph 20.7 mph N/A   Clear
7:15 AM 5.0 °F -13.6 °F -0.4 °F 78% 30.24 in 10.0 mi West 16.1 mph - N/A   Clear
7:35 AM 5.0 °F -11.6 °F -2.2 °F 72% 30.25 in 10.0 mi West 12.7 mph 19.6 mph N/A   Clear
7:55 AM 3.2 °F -12.2 °F -2.2 °F 78% 30.26 in 10.0 mi West 10.4 mph - N/A   Clear
8:15 AM 3.2 °F -13.9 °F -2.2 °F 78% 30.27 in 10.0 mi West 12.7 mph - N/A   Clear
8:35 AM 3.2 °F -11.3 °F -2.2 °F 78% 30.27 in 10.0 mi West 9.2 mph 17.3 mph N/A   Clear
8:55 AM 5.0 °F -11.6 °F -2.2 °F 72% 30.28 in 10.0 mi West 12.7 mph 18.4 mph N/A   Clear
9:15 AM 5.0 °F -10.0 °F -0.4 °F 78% 30.29 in 10.0 mi West 10.4 mph - N/A   Clear
9:35 AM 5.0 °F -13.6 °F -0.4 °F 78% 30.30 in 10.0 mi West 16.1 mph - N/A   Clear
9:55 AM 6.8 °F -9.3 °F -0.4 °F 72% 30.30 in 10.0 mi WSW 12.7 mph 17.3 mph N/A   Clear
10:15 AM 6.8 °F -10.0 °F -0.4 °F 72% 30.31 in 10.0 mi WSW 13.8 mph - N/A   Scattered Clouds
10:35 AM 8.6 °F -6.3 °F -0.4 °F 67% 30.32 in 10.0 mi WSW 11.5 mph - N/A   Scattered Clouds
10:55 AM 8.6 °F -7.0 °F 1.4 °F 73% 30.33 in 7.0 mi West 12.7 mph - N/A   Scattered Clouds
11:15 AM 8.6 °F -5.5 °F -0.4 °F 67% 30.33 in 10.0 mi WSW 10.4 mph 17.3 mph N/A   Scattered Clouds
11:35 AM 8.6 °F -4.7 °F 1.4 °F 73% 30.33 in 10.0 mi WSW 9.2 mph - N/A   Scattered Clouds
11:55 AM 8.6 °F -6.3 °F -0.4 °F 67% 30.34 in 10.0 mi West 11.5 mph 16.1 mph N/A   Mostly Cloudy
12:15 PM 8.6 °F -6.3 °F -0.4 °F 67% 30.34 in 10.0 mi West 11.5 mph - N/A   Overcast
12:35 PM 8.6 °F -6.3 °F -0.4 °F 67% 30.34 in 7.0 mi West 11.5 mph 17.3 mph N/A   Overcast
12:55 PM 10.4 °F -1.5 °F 1.4 °F 67% 30.34 in 5.0 mi West 8.1 mph - N/A Snow Light Snow
1:15 PM 10.4 °F -3.3 °F 1.4 °F 67% 30.33 in 5.0 mi WSW 10.4 mph - N/A   Haze
1:35 PM 10.4 °F -3.3 °F 1.4 °F 67% 30.33 in 7.0 mi SW 10.4 mph 16.1 mph N/A   Overcast
1:55 PM 10.4 °F -4.8 °F 1.4 °F 67% 30.32 in 10.0 mi SW 12.7 mph - N/A   Overcast
2:15 PM 12.2 °F -1.8 °F 3.2 °F 67% 30.31 in 10.0 mi West 11.5 mph 16.1 mph N/A   Overcast
2:35 PM 10.4 °F -4.8 °F 3.2 °F 73% 30.31 in 10.0 mi West 12.7 mph - N/A   Overcast
2:55 PM 12.2 °F -3.1 °F 3.2 °F 67% 30.30 in 10.0 mi WSW 13.8 mph - N/A   Overcast
3:15 PM 12.2 °F -3.7 °F 3.2 °F 67% 30.30 in 10.0 mi WSW 15.0 mph 20.7 mph N/A   Overcast
3:35 PM 14.0 °F -0.2 °F 3.2 °F 62% 30.30 in 10.0 mi WSW 12.7 mph 17.3 mph N/A   Overcast
3:55 PM 14.0 °F 2.0 °F 3.2 °F 62% 30.30 in 10.0 mi WSW 9.2 mph - N/A   Mostly Cloudy
4:15 PM 12.2 °F -1.8 °F 3.2 °F 67% 30.30 in 10.0 mi WSW 11.5 mph - N/A   Mostly Cloudy
4:35 PM 14.0 °F 1.2 °F 3.2 °F 62% 30.29 in 10.0 mi West 10.4 mph 17.3 mph N/A   Overcast
4:55 PM 12.2 °F -1.0 °F 3.2 °F 67% 30.29 in 10.0 mi West 10.4 mph 16.1 mph N/A   Overcast
5:15 PM 14.0 °F 1.2 °F 3.2 °F 62% 30.28 in 10.0 mi WSW 10.4 mph 19.6 mph N/A   Mostly Cloudy
5:35 PM 14.0 °F 0.5 °F 3.2 °F 62% 30.28 in 10.0 mi WSW 11.5 mph 17.3 mph N/A   Overcast
5:55 PM 14.0 °F -0.2 °F 3.2 °F 62% 30.28 in 10.0 mi WSW 12.7 mph 18.4 mph N/A   Overcast
6:15 PM 14.0 °F 2.0 °F 3.2 °F 62% 30.28 in 10.0 mi WSW 9.2 mph 16.1 mph N/A   Mostly Cloudy
6:35 PM 14.0 °F 5.1 °F 3.2 °F 62% 30.28 in 10.0 mi WSW 5.8 mph - N/A   Mostly Cloudy
6:55 PM 14.0 °F 1.2 °F 3.2 °F 62% 30.28 in 10.0 mi SW 10.4 mph - N/A   Overcast
7:15 PM 14.0 °F 3.9 °F 5.0 °F 67% 30.28 in 10.0 mi SW 6.9 mph - N/A   Overcast
7:35 PM 14.0 °F 2.9 °F 5.0 °F 67% 30.28 in 10.0 mi WSW 8.1 mph - N/A   Overcast
7:55 PM 14.0 °F 2.0 °F 5.0 °F 67% 30.27 in 10.0 mi WSW 9.2 mph - N/A   Overcast
8:15 PM 14.0 °F 2.9 °F 5.0 °F 67% 30.27 in 10.0 mi WSW 8.1 mph - N/A   Scattered Clouds
8:35 PM 14.0 °F 3.9 °F 5.0 °F 67% 30.27 in 10.0 mi SW 6.9 mph - N/A   Clear
9:15 PM 14.0 °F 8.2 °F 6.8 °F 73% 30.26 in 10.0 mi SSW 3.5 mph - N/A   Mostly Cloudy
9:35 PM 14.0 °F 3.9 °F 5.0 °F 67% 30.26 in 10.0 mi SSW 6.9 mph - N/A   Overcast
9:55 PM 14.0 °F 6.5 °F 5.0 °F 67% 30.25 in 10.0 mi SW 4.6 mph - N/A   Scattered Clouds
10:15 PM 14.0 °F 5.1 °F 5.0 °F 67% 30.25 in 10.0 mi SSW 5.8 mph - N/A   Clear
10:55 PM 14.0 °F 5.1 °F 6.8 °F 73% 30.23 in 10.0 mi SSW 5.8 mph - N/A   Clear
11:15 PM 14.0 °F 6.5 °F 6.8 °F 73% 30.22 in 10.0 mi SSW 4.6 mph - N/A   Clear
11:35 PM 14.0 °F 6.5 °F 8.6 °F 79% 30.22 in 10.0 mi SSW 4.6 mph - N/A   Clear
11:55 PM 14.0 °F 8.2 °F 8.6 °F 79% 30.21 in 10.0 mi South 3.5 mph - N/A   Clear